TIME,DELAY(SENSOR),PRES,OXYGEN,RAWTEMP,T(OPTODE),TCPHASE,FLUOR,BETA(BETA700),BETA(BETA412),BETA(BETA440),CDOM,C(CSC),ED(ED412.20),ED(ED444.00),ED(ED489.60),ED(ED554.30),LU(LU412.10),LU(LU443.90),LU(LU489.70),LU(LU554.70),COMP,TILTX,TILTY,CHECK
1336448950,5807,881.7399902343750000,40.7049407958984400,567.2990722656250000,4.2594599723815920,55.4780387878418000,55,100,101,78,83,15491,0,0,0,0,2147124635,2147774619,2147579410,2147570998,489,2,13,65331
1336452546,5809,953.8400268554688000,45.0829696655273440,574.5159301757812000,4.0351409912109375,54.9304695129394500,55,100,103,79,82,15491,0,0,0,0,2147128155,2147775734,2147577645,2147572562,1079,2,13,60589
1336456146,5810,978.8800048828125000,47.4346199035644500,577.4879150390625000,3.9426329135894775,54.6353302001953100,55,100,101,79,84,15489,0,0,0,0,2147128182,2147773888,2147576320,2147570267,150,2,13,30410
1336459746,5810,982.8300170898438000,47.1522598266601560,576.9274291992188000,3.9600849151611330,54.6643791198730500,55,99,102,79,83,15487,0,0,0,0,2147125988,2147774838,2147573220,2147570752,226,2,13,17264
1336463346,5810,983.7999877929688000,47.1542015075683600,577.1782226562500000,3.9522759914398193,54.6719207763671900,55,98,100,79,84,15486,0,0,0,0,2147126838,2147775506,2147576557,2147571986,3484,2,13,24006
1336466946,5808,983.0700073242188000,47.0018882751464840,577.5715942382812000,3.9400250911712646,54.6937713623046900,55,101,101,78,84,15488,0,0,0,0,2147127835,2147774692,2147572297,2147572059,146,2,13,63035
1336470546,5810,985.5200195312500000,47.3728790283203100,578.6610107421875000,3.9060959815979004,54.6529197692871100,54,98,105,79,85,15488,0,0,0,0,2147129252,2147776137,2147579785,2147568082,3537,2,13,41705
1336474146,5809,992.5499877929688000,47.6723213195800800,578.3242187500000000,3.9165880680084230,54.6090888977050800,55,99,102,79,84,15487,0,0,0,0,2147125421,2147775862,2147576091,2147569005,80,2,13,35872
1336477746,5811,999.4799804687500000,47.0092010498046900,577.3867187500000000,3.9457840919494630,54.6918792724609400,54,102,102,78,85,15488,0,0,0,0,2147125979,2147773156,2147573769,2147573952,79,2,13,34043
1336481346,5811,998.0499877929688000,45.7132797241210940,575.5487060546875000,4.0029997825622560,54.8510093688964840,56,100,101,79,83,15431,0,0,0,0,2147126921,2147777088,2147572745,2147569773,37,2,13,4348
1336484946,5811,999.0399780273438000,45.8776206970214840,576.9865112304688000,3.9582440853118896,54.8440399169921900,55,103,101,79,83,15434,0,0,0,0,2147125110,2147775204,2147577828,2147571062,3500,2,13,58308
1336488546,5811,1007.6099853515625000,46.5726814270019500,575.9005126953125000,3.9920499324798584,54.7333488464355500,54,100,101,79,84,15430,0,0,0,0,2147127168,2147772480,2147572754,2147569499,3502,2,13,33009
1336492146,5809,990.3800048828125000,45.7679901123046900,576.2216186523438000,3.9820559024810790,54.8489418029785160,55,101,102,77,84,15430,0,0,0,0,2147127250,2147776786,2147572873,2147570889,313,2,13,45889
1336495746,5810,987.9500122070312000,45.8543701171875000,578.0913696289062000,3.9238379001617430,54.8599815368652340,54,100,101,78,82,15430,0,0,0,0,2147126930,2147770724,2147577417,2147571803,3402,2,13,26153
1336499346,5812,988.2999877929688000,45.8004188537597660,579.2225952148438000,3.8885989189147950,54.8813705444335940,55,98,103,79,85,15429,0,0,0,0,2147128274,2147772507,2147576521,2147570148,77,2,13,39900
1336502946,5811,993.5599975585938000,45.2049598693847660,579.2255249023438000,3.8885080814361572,54.9657287597656250,54,98,102,78,85,15429,0,0,0,0,2147128996,2147773814,2147576804,2147568740,16,2,13,1437
1336506546,5813,995.1199951171875000,44.4931106567382800,579.3732299804688000,3.8839070796966553,55.0659217834472660,54,99,103,79,83,15424,0,0,0,0,2147127168,2147770633,2147575277,2147569746,25,2,13,7914
1336510146,5809,991.2399902343750000,44.9981689453125000,579.9055786132812000,3.8673210144042970,55.0026893615722660,54,101,102,78,84,15424,0,0,0,0,2147125696,2147772836,2147573531,2147570358,3488,2,13,25023
1336513746,5811,995.2100219726562000,46.1013412475585940,579.6159057617188000,3.8763470649719240,54.8463592529296900,55,100,102,78,82,15413,0,0,0,0,2147124900,2147770834,2147571136,2147568128,73,2,13,36726
1336517346,5811,1002.5499877929688000,46.6174888610839840,579.5280761718750000,3.8790841102600098,54.7677688598632800,55,100,102,79,84,15408,0,0,0,0,2147126546,2147770294,2147576850,2147571794,3556,2,13,48112
1336520946,5809,1001.3300170898438000,47.4344902038574200,578.3516235351562000,3.9157309532165527,54.6399803161621100,54,100,101,78,84,15407,0,0,0,0,2147123318,2147768749,2147572214,2147572224,66,2,13,223
1336524546,5807,1006.4199829101562000,46.7433395385742200,578.5042724609375000,3.9109759330749510,54.7408218383789060,55,102,103,78,82,15425,0,0,0,0,2147122916,2147773028,2147572196,2147572425,244,2,13,62030
1336528146,5811,1009.9799804687500000,46.3954010009765600,577.6115722656250000,3.9387800693511963,54.7799110412597660,55,101,102,78,84,15410,0,0,0,0,2147127780,2147776073,2147578011,2147572516,110,2,13,2814
1336531746,5811,1003.8099975585938000,46.1927795410156250,577.6356811523438000,3.9380280971527100,54.8059692382812500,55,100,102,79,84,15410,0,0,0,0,2147124836,2147768356,2147576713,2147574390,3453,2,13,11117
1336535346,5808,1002.7100219726562000,46.3665084838867200,577.9765014648438000,3.9274160861968994,54.7849197387695300,55,99,102,78,84,15413,0,0,0,0,2147126884,2147773540,2147576676,2147568996,262,2,13,23108
1336538946,5809,1001.2299804687500000,46.4408111572265600,577.7194824218750000,3.9354169368743896,54.7765388488769500,55,101,102,79,84,15413,0,0,0,0,2147125174,2147776996,2147577947,2147572525,228,2,13,47216
1336542546,5811,1002.8400268554688000,46.2126693725585940,578.0496826171875000,3.9251370429992676,54.8117408752441400,55,100,103,78,83,15412,0,0,0,0,2147125357,2147769682,2147574793,2147575003,340,2,13,31073
1336546146,5810,1003.8699951171875000,46.2701416015625000,578.0838012695312000,3.9240739345550537,54.7998695373535160,54,100,103,78,84,15400,0,0,0,0,2147124032,2147771419,2147575945,2147569709,567,2,13,41867
1336549746,5811,1000.4799804687500000,46.7769584655761700,578.8873291015625000,3.8990440368652344,54.7393417358398440,53,100,104,79,84,15409,0,0,0,0,2147123547,2147770596,2147578112,2147570541,57,2,13,25636
1336553346,5809,1006.1699829101562000,47.6680488586425800,579.0867919921875000,3.8928298950195312,54.6160507202148440,55,101,101,77,83,15408,0,0,0,0,2147126262,2147775131,2147570770,2147570294,3155,2,13,52231
1336556946,5810,999.2299804687500000,47.1907691955566400,579.0203247070312000,3.8949029445648193,54.6859397888183600,54,100,102,77,84,15409,0,0,0,0,2147127533,2147773037,2147571492,2147571245,426,2,13,48033
1336560546,5810,997.0900268554688000,47.0707206726074200,579.1207885742188000,3.8917729854583740,54.6992607116699200,54,99,102,78,85,15410,0,0,0,0,2147124544,2147776685,2147573558,2147572800,3193,2,13,34148
1336564146,5809,998.9799804687500000,47.3825302124023440,579.1439208984375000,3.8910501003265380,54.6570281982421900,55,100,101,78,84,15408,0,0,0,0,2147129133,2147775588,2147573485,2147571629,3499,2,13,37291
1336567746,5808,1002.2999877929688000,47.0300216674804700,579.1572875976562000,3.8906331062316895,54.7114181518554700,54,99,102,79,82,15406,0,0,0,0,2147123145,2147778294,2147575533,2147570980,263,2,13,45145
1336571346,5808,1002.8499755859375000,47.6950988769531250,579.0203247070312000,3.8949029445648193,54.6123008728027340,55,100,101,79,84,15392,0,0,0,0,2147125485,2147774848,2147573184,2147570212,336,2,13,59189
1336574946,5811,1005.2999877929688000,46.9884300231933600,579.0903930664062000,3.8927190303802490,54.7132797241210940,55,101,101,79,83,15371,0,0,0,0,2147124598,2147776164,2147574326,2147569856,34,2,13,36355
1336578546,5808,1001.6300048828125000,47.4487190246582000,579.1403808593750000,3.8911609649658203,54.6516685485839840,55,102,102,80,84,15372,0,0,0,0,2147125549,2147772397,2147572982,2147570633,295,2,13,57969
1336582146,5809,1005.1400146484375000,47.6583900451660160,578.9572143554688000,3.8968698978424072,54.6188697814941400,55,102,101,78,84,15372,0,0,0,0,2147124836,2147776274,2147577389,2147571940,368,2,13,45778
1336585746,5809,1009.0599975585938000,47.6894187927246100,578.7105712890625000,3.9045510292053223,54.6100997924804700,55,100,102,77,84,15371,0,0,0,0,2147127268,2147775268,2147576969,2147573467,344,2,13,29368
1336589346,5809,1002.6400146484375000,46.8288993835449200,579.2188110351562000,3.8887200355529785,54.7374496459960940,54,99,101,77,84,15369,0,0,0,0,2147124992,2147774308,2147576393,2147566153,309,2,13,17362
1336592946,5809,1002.4199829101562000,46.7451782226562500,579.2167968750000000,3.8887810707092285,54.7496986389160160,55,100,101,78,82,15318,0,0,0,0,2147127798,2147769947,2147579675,2147569792,342,2,13,46396
1336593056,5808,1002.7000122070312000,46.6473312377929700,579.1259765625000000,3.8916089534759520,54.7588195800781250,55,101,101,80,85,15321,0,0,0,0,2147126281,2147770404,2147574244,2147571849,481,2,13,14250
